Chattanooga, TN

4:10 PM EDT on June 26, 2017 (GMT -0400)
Lovell

Weather History for KCHA - May, 2014

Change the Weather History Date:

Wednesday, May 7, 2014

  Actual Average Record
Temperature  
Mean Temperature 71 °F 66 °F  
Max Temperature 86 °F 78 °F 94 °F (1940)
Min Temperature 56 °F 55 °F 38 °F (1974)
Cooling Degree Days 6 3  
Month to date cooling degree days 23 19  
Year to date cooling degree days 61 65  
Growing Degree Days 20 (Base 50)    
Moisture  
Dew Point 54 °F    
Average Humidity 60    
Maximum Humidity 93    
Minimum Humidity 27    
Precipitation  
Precipitation 0.00 in 0.14 in 2.22 in (1915)
Month to date precipitation 0.00 0.99  
Year to date precipitation 15.44 19.71  
Snow  
Snow 0.00 in - - ()
Month to date snowfall 0.0  
Snow Depth 0.00 in    
Sea Level Pressure  
Sea Level Pressure 30.04 in    
Wind  
Wind Speed 5 mph (South)    
Max Wind Speed 15 mph    
Max Gust Speed 20 mph    
Visibility 10 miles    
Events      
T = Trace of Precipitation, MM = Missing Value Source: NWS Daily Summary

Daily Weather History Graph

Daily Weather History Graph

Search for Another Location

Airport or City:

Trip Planner

Search our weather history database for the weather conditions in past years. The results will help you decide how hot, cold, wet, or windy it might be!

Date:

Astronomy

May. 07, 2014 Rise Set
Actual Time 6:43 AM EDT 8:31 PM EDT
Civil Twilight 6:16 AM EDT 8:58 PM EDT
Nautical Twilight 5:43 AM EDT 9:32 PM EDT
Astronomical Twilight 5:08 AM EDT 10:07 PM EDT
Moon 1:51 PM EDT (5/7) 2:26 AM EDT (5/7)
Length of Visible Light 14h 42m
Length of Day
13h 47m
First Quarter, 55% of the Moon is Illuminated
May 7
First Quarter
May 14
Full
May 21
Last Quarter
May 28
New
Jun 5
First Quarter

Hourly Weather History & Observations

Time (EDT) Temp. Heat Index Dew Point Humidity Pressure Visibility Wind Dir Wind Speed Gust Speed Precip Events Conditions
12:53 AM 64.0 °F - 57.0 °F 78% 29.97 in 10.0 mi Calm Calm - N/A   Clear
1:53 AM 62.1 °F - 57.0 °F 84% 29.98 in 10.0 mi Calm Calm - N/A   Clear
2:53 AM 62.1 °F - 57.0 °F 84% 29.98 in 10.0 mi Calm Calm - N/A   Clear
3:53 AM 62.1 °F - 57.0 °F 84% 29.99 in 10.0 mi Calm Calm - N/A   Clear
4:53 AM 60.8 °F - 55.4 °F 82% 30.02 in 10.0 mi Calm Calm - N/A   Clear
5:53 AM 55.9 °F - 53.1 °F 90% 30.01 in 10.0 mi Calm Calm - N/A   Partly Cloudy
6:53 AM 55.9 °F - 53.1 °F 90% 30.04 in 10.0 mi Calm Calm - N/A   Scattered Clouds
7:53 AM 61.0 °F - 55.9 °F 83% 30.06 in 10.0 mi Calm Calm - N/A   Mostly Cloudy
8:53 AM 66.9 °F - 55.9 °F 68% 30.08 in 10.0 mi South 5.8 mph - N/A   Mostly Cloudy
9:53 AM 71.1 °F - 55.9 °F 59% 30.08 in 10.0 mi South 4.6 mph - N/A   Mostly Cloudy
10:53 AM 75.9 °F - 55.9 °F 50% 30.08 in 10.0 mi South 6.9 mph - N/A   Mostly Cloudy
11:53 AM 80.1 °F 80.4 °F 57.0 °F 45% 30.08 in 10.0 mi South 9.2 mph - N/A   Mostly Cloudy
12:53 PM 81.0 °F 80.8 °F 55.9 °F 42% 30.08 in 10.0 mi South 10.4 mph - N/A   Mostly Cloudy
1:53 PM 82.9 °F 82.4 °F 57.0 °F 41% 30.06 in 10.0 mi Variable 6.9 mph - N/A   Scattered Clouds
2:53 PM 84.0 °F 82.6 °F 54.0 °F 35% 30.06 in 10.0 mi South 11.5 mph - N/A   Scattered Clouds
3:53 PM 84.9 °F - 48.9 °F 29% 30.04 in 10.0 mi South 10.4 mph - N/A   Scattered Clouds
4:53 PM 84.9 °F - 50.0 °F 30% 30.04 in 10.0 mi SSE 9.2 mph - N/A   Scattered Clouds
5:53 PM 84.2 °F - 51.8 °F 33% 30.05 in 10.0 mi SSE 10.4 mph - N/A   Scattered Clouds
6:53 PM 84.0 °F - 46.9 °F 27% 30.04 in 10.0 mi South 9.2 mph - N/A   Clear
7:53 PM 82.0 °F - 46.9 °F 29% 30.04 in 10.0 mi South 5.8 mph - N/A   Clear
8:53 PM 78.1 °F - 52.0 °F 40% 30.05 in 10.0 mi SSE 3.5 mph - N/A   Clear
9:53 PM 73.9 °F - 54.0 °F 50% 30.06 in 10.0 mi Calm Calm - N/A   Clear
10:53 PM 72.0 °F - 55.0 °F 55% 30.08 in 10.0 mi Calm Calm - N/A   Clear
11:53 PM 69.1 °F - 55.9 °F 63% 30.08 in 10.0 mi South 3.5 mph - N/A   Clear